Weather History for KLLQ - November, 2013

Change the Weather History Date:

Tuesday, November 12, 2013

  Actual Average (KPBF) Record (KPBF)
Temperature  
Mean Temperature 46 °F 54 °F  
Max Temperature 57 °F 65 °F 84 °F (1955)
Min Temperature 34 °F 44 °F 21 °F (1950)
Degree Days  
Heating Degree Days 19 11  
Month to date heating degree days 112  
Since 1 July heating degree days 249  
Cooling Degree Days 0 0  
Month to date cooling degree days 10  
Year to date cooling degree days 2129  
Moisture  
Dew Point 34 °F    
Average Humidity 64    
Maximum Humidity 93    
Minimum Humidity 39    
Precipitation  
Precipitation 0.01 in 0.17 in 2.00 in (1889)
Month to date precipitation 1.83  
Year to date precipitation 42.71  
Snow  
Snow 0.00 in 0.00 in - ()
Month to date snowfall 0.0  
Since 1 July snowfall 0.0  
Since 1 September snowfall 0.0  
Snow Depth -    
Sea Level Pressure  
Sea Level Pressure 30.50 in    
Wind  
Wind Speed 8 mph (NNE)    
Max Wind Speed 18 mph    
Max Gust Speed 32 mph    
Visibility 10 miles    
Events      
T = Trace of Precipitation, MM = Missing Value Source: NWS Daily Summary

Daily Weather History Graph

Daily Weather History Graph

Search for Another Location

Airport or City:

Trip Planner

Search our weather history database for the weather conditions in past years. The results will help you decide how hot, cold, wet, or windy it might be!

Date:

Astronomy

Nov. 12, 2013 Rise Set
Actual Time 6:36 AM CST 5:05 PM CST
Civil Twilight 6:09 AM CST 5:32 PM CST
Nautical Twilight 5:40 AM CST 6:02 PM CST
Astronomical Twilight 5:10 AM CST 6:31 PM CST
Moon 2:07 PM CST (11/12) 1:40 AM CST (11/12)
Length of Visible Light 11h 22m
Length of Day
10h 29m
Waxing Gibbous, 76% of the Moon is Illuminated
Nov 12
Waxing Gibbous
Nov 17
Full
Nov 25
Last Quarter
Dec 2
New
Dec 9
First Quarter

Hourly Weather History & Observations

Time (CST) Temp. Windchill Dew Point Humidity Pressure Visibility Wind Dir Wind Speed Gust Speed Precip Events Conditions
12:53 AM 48.9 °F - 46.9 °F 93% 30.24 in 10.0 mi WNW 3.5 mph - 0.01 in   Clear
1:53 AM 48.9 °F - 46.9 °F 93% 30.24 in 10.0 mi West 3.5 mph - N/A   Clear
2:53 AM 51.1 °F - 48.0 °F 89% 30.25 in 10.0 mi West 3.5 mph - N/A   Mostly Cloudy
3:53 AM 53.1 °F - 50.0 °F 89% 30.27 in 10.0 mi NW 3.5 mph - N/A   Overcast
4:53 AM 57.0 °F - 50.0 °F 77% 30.31 in 10.0 mi NNE 9.2 mph 17.3 mph N/A   Mostly Cloudy
5:21 AM 55.4 °F - 50.0 °F 82% 30.33 in 10.0 mi NNE 12.7 mph 29.9 mph N/A   Overcast
5:48 AM 53.6 °F - 46.4 °F 77% 30.37 in 10.0 mi NNE 9.2 mph 23.0 mph N/A   Overcast
5:53 AM 53.1 °F - 46.9 °F 80% 30.37 in 10.0 mi NNE 18.4 mph 28.8 mph N/A   Overcast
6:30 AM 50.0 °F - 42.8 °F 76% 30.40 in 10.0 mi NNE 11.5 mph 24.2 mph N/A   Overcast
6:53 AM 50.0 °F - 42.1 °F 74% 30.43 in 10.0 mi North 10.4 mph 23.0 mph N/A   Overcast
7:53 AM 46.9 °F - 37.9 °F 71% 30.48 in 10.0 mi NNE 15.0 mph 32.2 mph N/A   Overcast
8:26 AM 46.4 °F 42.4 °F 35.6 °F 66% 30.51 in 10.0 mi NNE 8.1 mph 26.5 mph N/A   Overcast
8:53 AM 46.0 °F 39.6 °F 36.0 °F 68% 30.53 in 10.0 mi NNE 15.0 mph 21.9 mph N/A   Overcast
9:06 AM 46.4 °F 41.9 °F 35.6 °F 66% 30.53 in 10.0 mi North 9.2 mph 26.5 mph N/A   Overcast
9:13 AM 46.4 °F 39.5 °F 35.6 °F 66% 30.53 in 10.0 mi NNE 17.3 mph 28.8 mph N/A   Overcast
9:53 AM 46.0 °F 40.2 °F 33.1 °F 61% 30.55 in 10.0 mi NNE 12.7 mph 26.5 mph N/A   Overcast
10:01 AM 46.4 °F 40.4 °F 33.8 °F 62% 30.55 in 10.0 mi NE 13.8 mph 26.5 mph N/A   Overcast
10:53 AM 45.0 °F 38.2 °F 33.1 °F 63% 30.58 in 10.0 mi North 15.0 mph 29.9 mph N/A   Overcast
11:32 AM 46.4 °F 40.4 °F 30.2 °F 53% 30.57 in 10.0 mi NNE 13.8 mph 25.3 mph N/A   Mostly Cloudy
11:53 AM 48.0 °F - 30.9 °F 52% 30.57 in 10.0 mi NNE 13.8 mph 26.5 mph N/A   Mostly Cloudy
12:53 PM 46.9 °F - 28.0 °F 48% 30.55 in 10.0 mi North 12.7 mph 25.3 mph N/A   Clear
1:53 PM 48.0 °F - 25.0 °F 41% 30.55 in 10.0 mi NNE 9.2 mph 26.5 mph N/A   Clear
2:53 PM 48.0 °F - 24.1 °F 39% 30.56 in 10.0 mi NNE 9.2 mph 23.0 mph N/A   Clear
3:53 PM 46.0 °F 40.2 °F 24.1 °F 42% 30.57 in 10.0 mi NNE 12.7 mph 18.4 mph N/A   Clear
4:53 PM 43.0 °F 38.2 °F 21.9 °F 43% 30.59 in 10.0 mi NNE 8.1 mph - N/A   Clear
5:53 PM 39.9 °F 36.7 °F 23.0 °F 51% 30.60 in 10.0 mi NNE 4.6 mph - N/A   Clear
6:53 PM 39.0 °F 35.7 °F 24.1 °F 55% 30.63 in 10.0 mi Variable 4.6 mph - N/A   Clear
7:53 PM 37.9 °F 33.5 °F 23.0 °F 55% 30.63 in 10.0 mi NNE 5.8 mph - N/A   Clear
8:53 PM 37.0 °F 31.6 °F 21.9 °F 54% 30.65 in 10.0 mi NNE 6.9 mph - N/A   Clear
9:53 PM 36.0 °F 30.3 °F 21.0 °F 55% 30.66 in 10.0 mi NE 6.9 mph - N/A   Clear
10:53 PM 35.1 °F 29.3 °F 19.9 °F 54% 30.66 in 10.0 mi NE 6.9 mph - N/A   Clear
11:53 PM 34.0 °F 28.0 °F 21.0 °F 59% 30.66 in 10.0 mi NE 6.9 mph - N/A   Clear